sat.trackr.live / text

‹ back to catalog

ONEWEB-0585

NORAD 54652 · 2022-166L

PAYLOAD ACTIVE UNKNOWN

§ Identity

Operator
Country
UK
Launch date
2022-12-08
Launch site
AFETR
Launch vehicle
Mass (kg)
RCS (m²)

Purposes: comms

External: N2YO · Heavens-Above · Gunter

§ Orbital elements

Epoch: 2026-05-25T00:34:01.873920Z

Period
108.94 min
Inclination
87.9256°
Eccentricity
0.0001824
Mean motion
13.21824830 rev/d
Perigee alt
1,176.4 km
Apogee alt
1,179.1 km
Semi-major
7,555.9 km
B*
1.2852e-4
RAAN
248.5784°
Arg perigee
101.6191°
Mean anomaly
258.5148°
Rev number
16,846

§ Raw data

ONEWEB-05851 54652U 22166L   26145.02363280  .00000066  00000+0  12852-3 0  99932 54652  87.9256 248.5784 0001824 101.6191 258.5148 13.21824830168463

JSON: /api/v1/satellites/54652 · /tle

For live sub-satellite position, see the globe view (requires WebGL).

§ Visibility from observer

Set your observer location to see the next 7 days of passes ≥ 10°. The values pass through the URL so the page stays shareable.

No JS? Fill the form by hand. The geolocation button needs JavaScript.